Chongqing, China

12:34 PM CST on November 17, 2019 (GMT +0800)
Jiangbei

Weather History for ZUCK - September, 2019

Change the Weather History Date:

Sunday, September 1, 2019

  Actual Average (WUND) Record (WUND)
Temperature  
Mean Temperature 74 °F -  
Max Temperature 79 °F - - (-1)
Min Temperature 69 °F - - (-1)
Cooling Degree Days 9    
Growing Degree Days 24 (Base 50)    
Moisture  
Dew Point 67 °F    
Average Humidity 79    
Maximum Humidity 94    
Minimum Humidity 59    
Precipitation  
Precipitation 0.00 in - - ()
Sea Level Pressure  
Sea Level Pressure 29.95 in    
Wind  
Wind Speed 4 mph ()    
Max Wind Speed 7 mph    
Max Gust Speed -    
Visibility 5.7 miles    
Events      
Averages and records for this station are not official NWS values.
T = Trace of Precipitation, MM = Missing Value Source: Averaged Metar Reports

Daily Weather History Graph

Daily Weather History Graph

Search for Another Location

Airport or City:

Astronomy

Sep. 01, 2019 Rise Set
Actual Time 6:30 AM CST 7:16 PM CST
Civil Twilight 6:05 AM CST 7:40 PM CST
Nautical Twilight 5:37 AM CST 8:09 PM CST
Astronomical Twilight 5:08 AM CST 8:38 PM CST
Moon 8:15 AM CST (9/1) 8:53 PM CST (9/1)
Length of Visible Light 13h 34m
Length of Day
12h 46m
Waxing Crescent, 5% of the Moon is Illuminated
Sep 1
Waxing Crescent
Sep 6
First Quarter
Sep 14
Full
Sep 22
Last Quarter
Sep 29
New

Hourly Weather History & Observations

Time (CST) Temp. Dew Point Humidity Pressure Visibility Wind Dir Wind Speed Gust Speed Precip Events Conditions
12:00 AM 69.8 °F 68.0 °F 94% 30.01 in 6.2 mi NNE 6.7 mph - N/A   Scattered Clouds
1:00 AM 69.8 °F 66.2 °F 88% 30.01 in 6.2 mi NNE 6.7 mph - N/A   Scattered Clouds
2:00 AM 72 °F 67 °F 78% 29.92 in 6 mi ENE 2.2 mph - -  
2:00 AM 69.8 °F 66.2 °F 88% 29.98 in 6.2 mi NE 4.5 mph - N/A   Scattered Clouds
3:00 AM 69.8 °F 68.0 °F 94% 29.98 in 6.2 mi North 6.7 mph - N/A   Scattered Clouds
4:00 AM 69.8 °F 66.2 °F 88% 29.95 in 6.2 mi East 4.5 mph - N/A   Scattered Clouds
5:00 AM 72 °F 66 °F 77% 29.90 in 5 mi East 4.5 mph - -  
5:00 AM 69.8 °F 66.2 °F 88% 29.95 in 6.2 mi NNE 4.5 mph - N/A   Scattered Clouds
6:00 AM 69.8 °F 66.2 °F 88% 29.95 in 6.2 mi NNE 6.7 mph - N/A   Mostly Cloudy
7:00 AM 69.8 °F 66.2 °F 88% 29.95 in 3.7 mi Variable 2.2 mph - N/A   Scattered Clouds
8:00 AM 73 °F 67 °F 75% 29.93 in 5 mi SE 2.2 mph - -   Overcast
8:00 AM 69.8 °F 68.0 °F 94% 29.98 in 3.1 mi NNE 4.5 mph - N/A   Scattered Clouds
9:00 AM 71.6 °F 66.2 °F 83% 30.01 in 3.7 mi East 4.5 mph - N/A   Scattered Clouds
10:00 AM 71.6 °F 66.2 °F 83% 30.01 in 4.3 mi ESE 4.5 mph - N/A   Scattered Clouds
11:00 AM 74 °F 67 °F 72% 29.95 in 5 mi NNE 2.2 mph - -   Overcast
12:00 PM 73.4 °F 66.2 °F 78% 30.01 in 5.0 mi SSE 4.5 mph - N/A   Overcast
1:00 PM 77.0 °F 68.0 °F 74% 29.98 in 5.0 mi SE 4.5 mph - N/A   Overcast
2:00 PM 77 °F 67 °F 64% 29.91 in 6 mi NE 2.2 mph - -   Overcast
2:00 PM 75.2 °F 66.2 °F 73% 29.98 in 5.0 mi South 4.5 mph - N/A   Overcast
3:00 PM 75.2 °F 66.2 °F 73% 29.95 in 6.2 mi ESE 4.5 mph - N/A   Overcast
4:00 PM 77.0 °F 68.0 °F 74% 29.95 in 6.2 mi ESE 4.5 mph - N/A   Scattered Clouds
5:00 PM 79 °F 67 °F 59% 29.87 in 7 mi SSW 2.2 mph - -   Mostly Cloudy
5:00 PM 77.0 °F 68.0 °F 74% 29.92 in 6.2 mi SSE 4.5 mph - N/A   Scattered Clouds
6:00 PM 77.0 °F 68.0 °F 74% 29.92 in - ESE 4.5 mph - N/A   Clear
7:00 PM 75.2 °F 68.0 °F 78% 29.92 in - ESE 4.5 mph - N/A   Clear
8:00 PM 78 °F 67 °F 61% 29.88 in 9 mi SE 2.2 mph - -   Mostly Cloudy
8:00 PM 75.2 °F 68.0 °F 78% 29.95 in - Variable 2.2 mph - N/A   Clear
9:00 PM 75.2 °F 68.0 °F 78% 29.98 in - ENE 4.5 mph - N/A   Clear
10:00 PM 73.4 °F 68.0 °F 83% 29.98 in - North 6.7 mph - N/A   Clear
11:00 PM 76 °F 68 °F 70% 29.94 in 7 mi NW 2.2 mph - -